Time,TemperatureF,DewpointF,PressureIn,WindDirection,WindDirectionDegrees,WindSpeedMPH,WindSpeedGustMPH,Humidity,HourlyPrecipIn,Conditions,Clouds,dailyrainin,SoftwareType,DateUTC
2013-04-13 00:03:00,36.0,33.0,29.79,NNW,348,3.0,6.0,90,0.03,,,0.47,,2013-04-13 04:03:00,
2013-04-13 00:12:00,36.0,33.0,29.79,NNW,348,3.0,6.0,90,0.03,,,0.47,,2013-04-13 04:12:00,
2013-04-13 00:23:00,36.0,33.0,29.79,NE,51,2.0,5.0,90,0.04,,,0.48,,2013-04-13 04:23:00,
2013-04-13 00:33:00,36.0,33.0,29.78,North,350,1.0,6.0,90,0.04,,,0.48,,2013-04-13 04:33:00,
2013-04-13 00:42:00,36.0,33.0,29.78,North,350,1.0,6.0,90,0.04,,,0.48,,2013-04-13 04:42:00,
2013-04-13 00:53:00,36.0,33.0,29.80,NNW,331,2.0,7.0,90,0.04,,,0.49,,2013-04-13 04:53:00,
2013-04-13 01:02:00,36.0,33.0,29.80,NW,326,2.0,7.0,90,0.03,,,0.50,,2013-04-13 05:02:00,
2013-04-13 01:12:00,36.0,33.0,29.80,NW,326,2.0,7.0,90,0.03,,,0.50,,2013-04-13 05:12:00,
2013-04-13 01:22:00,36.0,33.0,29.78,NNW,341,3.0,7.0,90,0.03,,,0.51,,2013-04-13 05:22:00,
2013-04-13 01:32:00,36.0,33.0,29.76,North,350,1.0,10.0,90,0.05,,,0.53,,2013-04-13 05:32:00,
2013-04-13 01:43:00,36.0,33.0,29.76,North,350,1.0,10.0,90,0.05,,,0.53,,2013-04-13 05:43:00,
2013-04-13 01:53:00,36.0,33.0,29.78,North,355,3.0,7.0,90,0.05,,,0.54,,2013-04-13 05:53:00,
2013-04-13 02:02:00,36.0,33.0,29.78,North,360,327.0,327.0,90,-99.99,,,-99.99,,2013-04-13 06:02:00,
2013-04-13 02:12:00,36.0,33.0,29.78,North,360,327.0,327.0,90,-99.99,,,-99.99,,2013-04-13 06:12:00,
2013-04-13 02:24:00,36.0,33.0,29.79,NW,314,3.0,9.0,90,0.04,,,0.55,,2013-04-13 06:24:00,
2013-04-13 02:35:00,36.0,33.0,29.78,NNW,334,2.0,4.0,90,0.02,,,0.55,,2013-04-13 06:35:00,
2013-04-13 02:48:00,36.0,33.0,29.78,NNW,334,2.0,4.0,90,0.02,,,0.55,,2013-04-13 06:48:00,
2013-04-13 02:55:00,36.0,33.0,29.80,NNW,343,2.0,4.0,90,0.01,,,0.55,,2013-04-13 06:55:00,
2013-04-13 03:05:00,36.0,33.0,29.79,NNE,19,1.0,5.0,90,0.01,,,0.55,,2013-04-13 07:05:00,
2013-04-13 03:15:00,36.0,33.0,29.79,NNE,19,1.0,5.0,90,0.01,,,0.55,,2013-04-13 07:15:00,
2013-04-13 03:24:00,36.0,33.0,29.80,WSW,258,2.0,6.0,90,0.00,,,0.55,,2013-04-13 07:24:00,
2013-04-13 03:35:00,36.0,33.0,29.80,NW,322,2.0,5.0,90,0.00,,,0.55,,2013-04-13 07:35:00,
2013-04-13 03:45:00,36.0,33.0,29.80,NW,322,2.0,5.0,90,0.00,,,0.55,,2013-04-13 07:45:00,
2013-04-13 03:57:00,36.0,33.0,29.81,NNW,336,0.0,3.0,90,0.00,,,0.55,,2013-04-13 07:57:00,
2013-04-13 04:06:00,36.0,33.0,29.82,NW,322,1.0,3.0,90,0.00,,,0.55,,2013-04-13 08:06:00,
2013-04-13 04:15:00,36.0,33.0,29.82,NW,322,1.0,3.0,90,0.00,,,0.55,,2013-04-13 08:15:00,
2013-04-13 04:25:00,36.0,33.0,29.83,NNW,348,0.0,4.0,90,0.00,,,0.55,,2013-04-13 08:25:00,
2013-04-13 04:35:00,36.0,33.0,29.83,NW,312,0.0,4.0,90,0.00,,,0.55,,2013-04-13 08:35:00,
2013-04-13 04:55:00,36.0,33.0,29.83,NW,318,1.0,4.0,90,0.00,,,0.55,,2013-04-13 08:55:00,
2013-04-13 05:05:00,36.0,33.0,29.83,NNW,336,1.0,4.0,90,0.00,,,0.55,,2013-04-13 09:05:00,
2013-04-13 05:15:00,36.0,33.0,29.83,NNW,336,1.0,4.0,90,0.00,,,0.55,,2013-04-13 09:15:00,
2013-04-13 05:24:00,36.0,33.0,29.84,NE,38,0.0,4.0,90,0.00,,,0.55,,2013-04-13 09:24:00,
2013-04-13 05:37:00,35.0,32.0,29.83,NNW,336,0.0,1.0,90,0.00,,,0.55,,2013-04-13 09:37:00,
2013-04-13 05:51:00,35.0,32.0,29.83,NNW,336,0.0,1.0,90,0.00,,,0.55,,2013-04-13 09:51:00,
2013-04-13 06:05:00,35.0,32.0,29.83,NNW,346,0.0,2.0,90,0.00,,,0.55,,2013-04-13 10:05:00,
2013-04-13 06:15:00,36.0,33.0,29.82,North,355,1.0,3.0,90,0.00,,,0.55,,2013-04-13 10:15:00,
2013-04-13 06:24:00,36.0,33.0,29.82,North,355,1.0,3.0,90,0.00,,,0.55,,2013-04-13 10:24:00,
2013-04-13 06:37:00,36.0,33.0,29.83,NW,306,0.0,1.0,90,0.00,,,0.55,,2013-04-13 10:37:00,
2013-04-13 06:46:00,36.0,33.0,29.83,NW,306,0.0,1.0,90,0.00,,,0.55,,2013-04-13 10:46:00,
2013-04-13 06:55:00,36.0,33.0,29.83,NW,306,0.0,1.0,90,0.00,,,0.55,,2013-04-13 10:55:00,
2013-04-13 07:06:00,35.0,32.0,29.84,NW,306,0.0,0.0,90,0.00,,,0.55,,2013-04-13 11:06:00,
2013-04-13 07:14:00,35.0,32.0,29.84,NW,306,0.0,0.0,90,0.00,,,0.55,,2013-04-13 11:14:00,
2013-04-13 07:24:00,36.0,33.0,29.85,NW,306,0.0,1.0,90,0.00,,,0.55,,2013-04-13 11:24:00,
2013-04-13 07:34:00,36.0,33.0,29.86,NW,306,0.0,1.0,90,0.00,,,0.55,,2013-04-13 11:34:00,
2013-04-13 07:45:00,36.0,33.0,29.86,NW,306,0.0,1.0,90,0.00,,,0.55,,2013-04-13 11:45:00,
2013-04-13 07:54:00,37.0,34.0,29.86,NNW,327,1.0,2.0,90,0.00,,,0.55,,2013-04-13 11:54:00,
2013-04-13 08:08:00,37.0,34.0,29.86,North,350,0.0,2.0,90,0.00,,,0.55,,2013-04-13 12:08:00,
2013-04-13 08:15:00,37.0,34.0,29.86,North,350,0.0,2.0,90,0.00,,,0.55,,2013-04-13 12:15:00,
2013-04-13 08:25:00,38.0,35.0,29.86,NNW,327,1.0,2.0,90,0.00,,,0.55,,2013-04-13 12:25:00,
2013-04-13 08:35:00,38.0,35.0,29.86,NW,323,0.0,2.0,90,0.00,,,0.55,,2013-04-13 12:35:00,
2013-04-13 08:47:00,38.0,35.0,29.86,NW,323,0.0,2.0,90,0.00,,,0.55,,2013-04-13 12:47:00,
2013-04-13 08:56:00,39.0,36.0,29.87,NE,39,1.0,3.0,89,0.00,,,0.55,,2013-04-13 12:56:00,
2013-04-13 09:06:00,40.0,37.0,29.88,North,360,0.0,4.0,88,0.00,,,0.55,,2013-04-13 13:06:00,
2013-04-13 09:15:00,40.0,37.0,29.88,North,360,0.0,4.0,88,0.00,,,0.55,,2013-04-13 13:15:00,
2013-04-13 09:30:00,40.0,37.0,29.88,North,360,1.0,2.0,88,0.00,,,0.54,,2013-04-13 13:30:00,
2013-04-13 09:48:00,41.0,37.0,29.88,North,360,0.0,2.0,87,0.00,,,0.54,,2013-04-13 13:48:00,
2013-04-13 09:57:00,42.0,38.0,29.89,NNW,342,0.0,1.0,86,0.00,,,0.54,,2013-04-13 13:57:00,
2013-04-13 10:05:00,43.0,39.0,29.88,NNW,340,0.0,1.0,85,0.00,,,0.54,,2013-04-13 14:05:00,
2013-04-13 10:15:00,43.0,39.0,29.88,NNW,340,0.0,1.0,85,0.00,,,0.54,,2013-04-13 14:15:00,
2013-04-13 10:24:00,44.0,39.0,29.89,NNW,340,0.0,2.0,83,0.00,,,0.48,,2013-04-13 14:24:00,
2013-04-13 10:39:00,44.0,38.0,29.90,WNW,302,1.0,3.0,79,0.00,,,0.48,,2013-04-13 14:39:00,
2013-04-13 11:05:00,45.0,38.0,29.90,NW,321,1.0,3.0,76,0.00,,,0.48,,2013-04-13 15:05:00,
2013-04-13 11:14:00,45.0,38.0,29.90,NW,321,1.0,3.0,76,0.00,,,0.48,,2013-04-13 15:14:00,
2013-04-13 11:29:00,46.0,38.0,29.90,West,281,0.0,5.0,73,0.00,,,0.28,,2013-04-13 15:29:00,
2013-04-13 11:44:00,47.0,38.0,29.90,NNW,327,0.0,3.0,72,0.00,,,0.28,,2013-04-13 15:44:00,
2013-04-13 11:58:00,49.0,39.0,29.90,NW,315,3.0,5.0,69,0.00,,,0.28,,2013-04-13 15:58:00,
2013-04-13 12:07:00,51.0,41.0,29.90,West,261,1.0,5.0,68,0.00,,,0.28,,2013-04-13 16:07:00,
2013-04-13 12:15:00,51.0,41.0,29.90,West,261,1.0,5.0,68,0.00,,,0.28,,2013-04-13 16:15:00,
2013-04-13 12:25:00,51.0,39.0,29.89,NW,310,1.0,8.0,64,0.00,,,0.17,,2013-04-13 16:25:00,
2013-04-13 12:46:00,52.0,37.0,29.89,NW,323,3.0,8.0,57,0.00,,,0.17,,2013-04-13 16:46:00,
2013-04-13 12:57:00,52.0,35.0,29.89,NNW,348,3.0,7.0,53,0.00,,,0.17,,2013-04-13 16:57:00,
2013-04-13 13:07:00,52.0,34.0,29.88,WNW,299,3.0,6.0,51,0.00,,,0.17,,2013-04-13 17:07:00,
2013-04-13 13:21:00,52.0,34.0,29.88,WNW,299,3.0,6.0,51,0.00,,,0.17,,2013-04-13 17:21:00,
2013-04-13 13:38:00,52.0,35.0,29.87,NNE,13,1.0,6.0,53,0.00,,,0.14,,2013-04-13 17:38:00,
2013-04-13 13:44:00,52.0,35.0,29.87,NNE,13,1.0,6.0,53,0.00,,,0.14,,2013-04-13 17:44:00,
2013-04-13 14:04:00,53.0,36.0,29.87,NNW,327,3.0,8.0,52,0.00,,,0.14,,2013-04-13 18:04:00,
2013-04-13 14:15:00,53.0,35.0,29.87,WSW,257,1.0,3.0,51,0.00,,,0.14,,2013-04-13 18:15:00,
2013-04-13 14:24:00,54.0,36.0,29.87,WSW,241,1.0,5.0,51,0.00,,,0.13,,2013-04-13 18:24:00,
2013-04-13 14:33:00,54.0,36.0,29.87,SW,225,2.0,7.0,50,0.00,,,0.13,,2013-04-13 18:33:00,
2013-04-13 14:42:00,54.0,36.0,29.87,SW,225,2.0,7.0,50,0.00,,,0.13,,2013-04-13 18:42:00,
2013-04-13 14:53:00,54.0,35.0,29.87,NNW,338,2.0,7.0,49,0.00,,,0.13,,2013-04-13 18:53:00,
2013-04-13 15:03:00,55.0,37.0,29.87,NW,309,3.0,6.0,50,0.00,,,0.13,,2013-04-13 19:03:00,
2013-04-13 15:12:00,55.0,37.0,29.87,NW,309,3.0,6.0,50,0.00,,,0.13,,2013-04-13 19:12:00,
2013-04-13 15:22:00,55.0,36.0,29.86,WNW,289,1.0,4.0,49,0.00,,,0.13,,2013-04-13 19:22:00,
2013-04-13 15:32:00,55.0,37.0,29.86,West,275,0.0,5.0,50,0.00,,,0.13,,2013-04-13 19:32:00,
2013-04-13 15:42:00,55.0,37.0,29.86,West,275,0.0,5.0,50,0.00,,,0.13,,2013-04-13 19:42:00,
2013-04-13 15:53:00,55.0,36.0,29.86,SW,221,1.0,2.0,49,0.00,,,0.13,,2013-04-13 19:53:00,
2013-04-13 16:02:00,54.0,36.0,29.86,WNW,295,2.0,4.0,50,0.00,,,0.13,,2013-04-13 20:02:00,
2013-04-13 16:12:00,54.0,36.0,29.86,WNW,295,2.0,4.0,50,0.00,,,0.13,,2013-04-13 20:12:00,
2013-04-13 16:22:00,53.0,34.0,29.86,WSW,243,1.0,5.0,49,0.00,,,0.13,,2013-04-13 20:22:00,
2013-04-13 16:32:00,53.0,36.0,29.87,NW,306,1.0,3.0,53,0.00,,,0.13,,2013-04-13 20:32:00,
2013-04-13 16:42:00,53.0,36.0,29.87,NW,306,1.0,3.0,53,0.00,,,0.13,,2013-04-13 20:42:00,
2013-04-13 16:52:00,53.0,34.0,29.86,SSW,211,1.0,3.0,49,0.00,,,0.13,,2013-04-13 20:52:00,
2013-04-13 17:02:00,54.0,36.0,29.86,WSW,237,0.0,2.0,50,0.00,,,0.13,,2013-04-13 21:02:00,
2013-04-13 17:12:00,54.0,36.0,29.86,WSW,237,0.0,2.0,50,0.00,,,0.13,,2013-04-13 21:12:00,
2013-04-13 17:22:00,53.0,35.0,29.86,NNW,338,1.0,4.0,51,0.00,,,0.12,,2013-04-13 21:22:00,
2013-04-13 17:33:00,52.0,34.0,29.87,SW,229,1.0,3.0,51,0.00,,,0.12,,2013-04-13 21:33:00,
2013-04-13 17:43:00,52.0,34.0,29.87,SW,229,1.0,3.0,51,0.00,,,0.12,,2013-04-13 21:43:00,
2013-04-13 17:53:00,52.0,35.0,29.87,SW,222,0.0,4.0,53,0.00,,,0.12,,2013-04-13 21:53:00,
2013-04-13 18:03:00,52.0,35.0,29.88,SW,227,0.0,4.0,52,0.00,,,0.12,,2013-04-13 22:03:00,
2013-04-13 18:13:00,52.0,35.0,29.88,SW,227,0.0,4.0,52,0.00,,,0.12,,2013-04-13 22:13:00,
2013-04-13 18:22:00,52.0,35.0,29.88,SW,218,0.0,3.0,52,0.00,,,0.12,,2013-04-13 22:22:00,
2013-04-13 18:33:00,52.0,35.0,29.86,SSE,159,2.0,5.0,53,0.00,,,0.12,,2013-04-13 22:33:00,
2013-04-13 18:42:00,52.0,35.0,29.86,SSE,159,2.0,5.0,53,0.00,,,0.12,,2013-04-13 22:42:00,
2013-04-13 18:53:00,51.0,35.0,29.87,South,169,0.0,6.0,54,0.00,,,0.12,,2013-04-13 22:53:00,
2013-04-13 19:02:00,50.0,34.0,29.89,SSW,208,2.0,6.0,55,0.00,,,0.12,,2013-04-13 23:02:00,
2013-04-13 19:12:00,50.0,34.0,29.89,SSW,199,1.0,4.0,55,0.00,,,0.11,,2013-04-13 23:12:00,
2013-04-13 19:22:00,50.0,34.0,29.89,SSW,199,1.0,4.0,55,0.00,,,0.11,,2013-04-13 23:22:00,
2013-04-13 19:32:00,50.0,36.0,29.89,SSW,199,0.0,2.0,59,0.00,,,0.11,,2013-04-13 23:32:00,
2013-04-13 19:42:00,50.0,36.0,29.89,SSW,199,0.0,2.0,59,0.00,,,0.11,,2013-04-13 23:42:00,
2013-04-13 19:53:00,49.0,35.0,29.89,SW,215,1.0,3.0,59,0.00,,,0.11,,2013-04-13 23:53:00,
2013-04-13 20:03:00,49.0,35.0,29.90,SW,225,0.0,3.0,59,0.00,,,0.11,,2013-04-14 00:03:00,
2013-04-13 20:12:00,49.0,35.0,29.90,SW,225,0.0,3.0,59,0.00,,,0.11,,2013-04-14 00:12:00,
2013-04-13 20:22:00,49.0,37.0,29.91,WSW,237,0.0,2.0,62,0.00,,,0.11,,2013-04-14 00:22:00,
2013-04-13 20:32:00,48.0,35.0,29.91,WSW,240,0.0,2.0,61,0.00,,,0.11,,2013-04-14 00:32:00,
2013-04-13 20:42:00,48.0,35.0,29.91,WSW,240,0.0,2.0,61,0.00,,,0.11,,2013-04-14 00:42:00,
2013-04-13 20:52:00,48.0,35.0,29.92,WSW,240,0.0,2.0,61,0.00,,,0.11,,2013-04-14 00:52:00,
2013-04-13 21:02:00,48.0,34.0,29.93,WNW,291,0.0,4.0,58,0.00,,,0.11,,2013-04-14 01:02:00,
2013-04-13 21:12:00,48.0,34.0,29.93,WNW,291,0.0,4.0,58,0.00,,,0.11,,2013-04-14 01:12:00,
2013-04-13 21:22:00,47.0,33.0,29.93,WNW,293,1.0,4.0,58,0.00,,,0.11,,2013-04-14 01:22:00,
2013-04-13 21:32:00,47.0,33.0,29.94,WNW,287,2.0,7.0,58,0.00,,,0.11,,2013-04-14 01:32:00,
2013-04-13 21:42:00,47.0,33.0,29.94,WNW,287,2.0,7.0,58,0.00,,,0.11,,2013-04-14 01:42:00,
2013-04-13 21:53:00,47.0,33.0,29.95,NNW,331,2.0,5.0,57,0.00,,,0.11,,2013-04-14 01:53:00,
2013-04-13 22:02:00,47.0,33.0,29.96,West,275,0.0,3.0,57,0.00,,,0.11,,2013-04-14 02:02:00,
2013-04-13 22:12:00,46.0,32.0,29.96,West,275,0.0,1.0,59,0.00,,,0.11,,2013-04-14 02:12:00,
2013-04-13 22:22:00,46.0,32.0,29.96,West,275,0.0,1.0,59,0.00,,,0.11,,2013-04-14 02:22:00,
2013-04-13 22:32:00,45.0,32.0,29.95,West,275,0.0,1.0,60,0.00,,,0.11,,2013-04-14 02:32:00,
2013-04-13 22:42:00,45.0,32.0,29.95,West,275,0.0,1.0,60,0.00,,,0.11,,2013-04-14 02:42:00,
2013-04-13 22:53:00,45.0,33.0,29.95,West,275,0.0,0.0,62,0.00,,,0.11,,2013-04-14 02:53:00,
2013-04-13 23:03:00,44.0,34.0,29.95,West,275,0.0,1.0,69,0.00,,,0.11,,2013-04-14 03:03:00,
2013-04-13 23:12:00,44.0,34.0,29.95,West,275,0.0,1.0,69,0.00,,,0.11,,2013-04-14 03:12:00,
2013-04-13 23:22:00,44.0,34.0,29.95,West,271,0.0,0.0,69,0.00,,,0.11,,2013-04-14 03:22:00,
2013-04-13 23:33:00,44.0,34.0,29.95,West,271,0.0,0.0,69,0.00,,,0.11,,2013-04-14 03:33:00,
2013-04-13 23:42:00,44.0,34.0,29.95,West,271,0.0,0.0,69,0.00,,,0.11,,2013-04-14 03:42:00,
2013-04-13 23:53:00,44.0,34.0,29.95,West,271,0.0,1.0,68,0.00,,,0.11,,2013-04-14 03:53:00,